Showing default

AETHER-5, 67376

Orbit data source: Space-Track

AETHER-5, 67376 is a payload satellite owned by Kepler Comms (CA) in SSO that was launched on Sun, 11 Jan 2026 UTC via an FALCON 9 launch vehicle from the Air Force Western Test Range (AFWTR). Payload-class satellites include a variety of spacecraft equipped with specific instruments for various scientific and technological missions. These include communications satellites like Starlink; space stations such as the ISS; scientific satellites like the Hubble; Earth observation satellites from companies like Planet Labs, Umbra, and HawkEye 360; GPS; miniature CubeSats for education and research; and military/defense satellites.

Loading next visibility...
Identifier
67376, 2026-004P
Orbit
SSO
Country
Flag of CACA
Related business
Manufacturer
Kepler Comms
Mission
Operational Commercial Communications
Bus & Motor
KEPLER GEN2B, Unknown motor
Mass
300 kg wet, 300 kg dry
Launch date (UTC)
2026-01-11 (4 months ago)
Launch vehicle
FALCON 9
Launch site
Air Force Western Test Range (AFWTR)
Object type
Payload
Rocket body
Debris
Shape & HBR
Box + 2 Pan, 7.6 m
Radar Cross Section
4.448 m²

Expand to show TLE details & history
Last TLE update: 20 hours ago

TLE from 20 hours ago
0 AETHER-5
1 67376U 26004P   26145.93083818  .00000510  00000-0  63992-4 0  9998
2 67376  97.8021 144.8879 0003178 179.8216 180.3002 14.86340031 19983
Epoch: 2026-05-25T22:20Z
TLE epoch observation values (Epoch: 2026-05-25T22:20:24.418Z)
Latitude
0.00003°
Longitude
-73.7254°
Altitude
614.637 km
Speed
7.551 km/s
True Right ascension
09h 39m 33s
True Declination
0° 00' 00"
Sunlit
Object was in daylight at epoch
Visualization orbit readout
Latitude
Unknown
Longitude
Unknown
Altitude
Unknown
Speed
Unknown
Apparent Right ascension
Unknown
Apparent Declination
Unknown
Sunlit
N/A
Visualization observer readout
Local Sidereal Time
03:35:33
Azimuth
Unknown
Elevation
Unknown
Doppler factor
Unknown
Orbital elements
Apogee altitude
608.631 km
Perigee altitude
604.191 km
Semi-major axis
6,984.548 km
Eccentricity
0.00032
Inclination
97.8021°
RAAN
144.8879°
Arg. of periapsis
179.8216°
True anomaly
180.30001°
Mean anomaly
180.3002°
Eccentric anomaly
180.3001°
Mean motion
3.71823 °/min
Orbital period
96.82 mins
BSTAR
0.000063992
Loading maneuver chart data...
Computing Atmospheric mass density...
Loading historical data...
Loading historical data...
Loading historical data...
Loading historical data...
Loading historical data...
Loading historical data...
Loading historical data...

Documentation

Showing up to 5 results
|